CZ-6A DEB

基本信息
目录编号:
64662
目录名称:
CZ-6A DEB
国际标识:
2024-140AFC
轨道中心:
EARTH
物体状态:
在轨
发射日期:
2024-08-06 UTC
轨道信息
数据来源: 国际轨道数据
星历时间: 2026-09-13T20:19:58+0800
半长轴: 7203.352km
偏心率: 0.0045221
轨道倾角: 88.993°
近地点辐角: 284.030°
升交点赤经: 264.521°
平近点角: 75.586°
近地点: 792.64km
远地点: 857.79km
周期: 101.406分钟
每日圈数: 14.20041
详细信息
发射场:
TSC
轨道高度:
LEO
数据来源:
AOE Integration Group
参考系:
TEME
时间系统:
UTC
历元类型:
SGP4
2D轨道图
3D轨道图
轨道高度分析图
轨道倾角分析图
轨道综合分析图
查看轨道综合分析图